Tracking 18784 objects as of 17-August-2017
HD Live streaming from Space Station
objects crossing your sky now

FLOCK 2K 14

Track FLOCK 2K 14 now!
10-day predictions
FLOCK 2K 14 is classified as:


NORAD ID: 42892
Int'l Code: 2017-042BV
Perigee: 462.7 km
Apogee: 483.8 km
Inclination: 97.0 °
Period: 93.9 minutes
Semi major axis: 6844 km
RCS: Unknown
Launch date: July 14, 2017
Source: United States (US)
Launch site: TYURATAM MISSILE AND SPACE COMPLEX (TTMTR)
Your satellite tracking list
Your tracking list is empty





NASA's NSSDC Master Catalog

Two Line Element Set (TLE):
1 42892U 17042BV  17228.81851495 +.00001812 +00000-0 +58453-4 0  9991
2 42892 096.9994 136.0535 0015453 114.8954 245.3897 15.33254609004949
Source of the keplerian elements: AFSPC